STARLINK-3872, 52453

Orbit data source: Space-Track

STARLINK-3872, 52453 is a payload satellite owned by SpaceX/Seattle (US) in LEO that was launched on Fri, 06 May 2022 UTC via an FALCON 9 launch vehicle from the Air Force Eastern Test Range (AFETR). Payload-class satellites include a variety of spacecraft equipped with specific instruments for various scientific and technological missions. These include communications satellites like Starlink; space stations such as the ISS; scientific satellites like the Hubble; Earth observation satellites from companies like Planet Labs, Umbra, and HawkEye 360; GPS; miniature CubeSats for education and research; and military/defense satellites.

Loading next visibility...
Identifier
52453, 2022-049C
Orbit
LEO
Country
Flag of USUS
Related business
Manufacturer
SpaceX/Seattle
Mission
Operational Commercial Communications
Bus & Motor
STARLINK, Unknown motor
Mass
297 kg wet, ~220 kg dry
Launch date (UTC)
2022-05-06 (4 years ago)
Launch vehicle
FALCON 9
Launch site
Air Force Eastern Test Range (AFETR)
Object type
Payload
Rocket body
Debris
Shape & HBR
Box + 1 Pan, 10.1 m
Radar Cross Section
13.562 m², Large (>1 m²)

Expand to show TLE details & history
Last TLE update: 15 hours ago

TLE from 15 hours ago
0 STARLINK-3872
1 52453U 22049C   25346.73135736 -.00003608  00000-0 -20878-3 0  9998
2 52453  53.2190  99.4903 0002280 107.2063 252.9178 15.08826890198982
Epoch: 2025-12-12T17:33Z
TLE epoch observation values (Epoch: 2025-12-12T17:33:09.275Z)
Latitude
-0.00011°
Longitude
114.5328°
Altitude
541.145 km
Speed
7.593 km/s
True Right ascension
06h 37m 57s
True Declination
0° 00' 00"
Sunlit
Object was in full shadow at epoch
Visualization orbit readout
Latitude
Unknown
Longitude
Unknown
Altitude
Unknown
Speed
Unknown
Apparent Right ascension
Unknown
Apparent Declination
Unknown
Sunlit
N/A
Visualization observer readout
Local Sidereal Time
07:26:32
Azimuth
Unknown
Elevation
Unknown
Doppler factor
Unknown
Orbital elements
Apogee altitude
541.605 km
Perigee altitude
538.451 km
Semi-major axis
6,918.165 km
Eccentricity
0.00023
Inclination
53.219°
RAAN
99.4903°
Arg. of periapsis
107.2063°
True anomaly
252.89283°
Mean anomaly
252.9178°
Eccentric anomaly
252.90531°
Mean motion
3.77187 °/min
Orbital period
95.44 mins
BSTAR
-0.00020878
Loading maneuver chart data...
Computing Atmospheric mass density...
Loading historical data...
Loading historical data...
Loading historical data...
Loading historical data...
Loading historical data...
Loading historical data...
Loading historical data...

Documentation

Showing up to 5 results
|